{"data":{"norad_id":63979,"intl_designator":"2025-099AD","name":"STARLINK-34045","alt_names":[],"object_type":"PAYLOAD","status":"ACTIVE","operator":null,"country":"US","launch_date":"2025-05-13","launch_site_code":"AFETR","launch_vehicle":null,"mission":null,"orbit_class":"UNKNOWN","rcs_meters":null,"size_class":null,"mass_kg":null,"dimensions":null,"purposes":["comms"],"wikipedia_slug":null,"has_3d_model":false,"image_url":null,"decayed_at":null,"tle_current":{"epoch":"2026-05-24T13:51:27.716832Z","epoch_age_seconds":105549,"freshness":"FRESH","line1":"1 63979U 25099AD  26144.57740413  .00010832  00000+0  40249-3 0  9992","line2":"2 63979  42.9969 104.0582 0000691 260.6393  99.4380 15.27587092 58899","mean_motion":15.27587092,"eccentricity":6.91e-5,"inclination_deg":42.9969,"raan_deg":104.0582,"arg_perigee_deg":260.6393,"mean_anomaly_deg":99.438,"bstar":0.00040249,"rev_number":5889,"period_min":94.266311069353,"perigee_km":482.55375363064,"apogee_km":483.50196661431,"semimajor_km":6861.1648601225,"source":"CELESTRAK","updated_at":"2026-05-25T13:38:20.216857Z"}}}